User: anonymous   Login
Location: Unspecified
(0.0000°N, 0.0000°E)
Time: 07:37:51
(UTC+00:00)
Language:

NOAA 12 - Orbit

View from above orbital plane
View from above orbital plane
View from above satellite
View from above satellite

Ground track
Ground track

The orbit data is extracted from the following two-line orbital elements,

1 21263U 91032A   18014.94088680 -.00000000 +00000-0 +17982-4 0  9998
2 21263 098.5483 038.9909 0014126 027.7156 332.4774 14.25859510386640
Epoch (UTC): 14 January 2018 22:34:52
Eccentricity: 0.0014126
inclination: 98.5483°
perigee height: 795 km
apogee height: 816 km
right ascension of ascending node: 38.9909°
argument of perigee: 27.7156°
revolutions per day: 14.25859510
mean anomaly at epoch: 332.4774°
orbit number at epoch: 38664

The dashed part of the orbit path shows where the satellite is in the earth's shadow,  

DLR